Starlink 5138

operational
NORAD ID: 54078 Int'l Des: 2022-136 Owner: SPXS Country: US Constellation: starlink
LEOCIRCULAR

About Starlink 5138

Description loading...

Live Position

Loading 3D Globe...

Upcoming Passes

Altitude History

Altitude vs Time

uPlot chart will show altitude changes over time

Two-Line Element Set

1 54078U 22136AD 25306.50002315 .01058013 00000-0 45051-2 0 9995
2 54078 53.2148 162.3675 0000773 132.3077 220.2761 15.82371728 5918
Epoch: Nov 2, 2025 • Age: 8 hours

Current Status

Altitude 323.3 km
Velocity 7.72 km/s
Sub-Earth Point 26.65°N, 155.96°W
Launch Date Oct 20, 2022
Age 3 years
Type internet

Technical Details

Classification Payload
Mass 305.00 kg
Dry Mass 290.00 kg
Total Mass 305.00 kg
Length 0.20 m
Diameter 2.80 m
Span 9.00 m
Shape Box + pan
Manufacturer SPXS
Bus Type Starlink
Phase Status In Orbit
Owner/State SPXS/US

Large Constellations

Loading constellations...